Location: Houhaj�rvi
(61.2667°N, 23.0167°E)
Time: 16:59:55
(UTC+00:00)

COSMOS 2428 - Pass Details

Date: 13 December 2019
Orbit: 844 x 858 km, 70.9° (Epoch: 22 January)

Event Time Altitude Azimuth Distance (km) Brightness Sun altitude
Rises 14:22:13 0° 184° (S) 3,399 6.5 -7.1°
Reaches altitude 10° 14:24:49 10° 176° (S) 2,469 5.6 -7.4°
Maximum altitude 14:29:54 35° 112° (ESE) 1,337 3.5 -7.9°
Drops below altitude 10° 14:35:02 10° 48° (NE) 2,492 4.5 -8.4°
Enters shadow 14:35:02 10° 48° (NE) 2,492 4.5 -8.4°
